Location: ?????
(31.8092°N, 35.2590°E)
Time: 20:39:39
(UTC+00:00)

SL-14 R/B - Pass Details

Date: 20 June 2021
Orbit: 517 x 554 km, 82.4° (Epoch: 23 July)

Event Time Altitude Azimuth Distance (km) Brightness Sun altitude
Exits shadow 19:05:40 81° 355° (N) 564 3.3 -23.5°
Drops below altitude 10° 19:09:32 10° 6° (N) 1,831 6.6 -24.0°
Sets 19:11:42 0° 7° (N) 2,725 7.5 -24.3°
